User: anonymous   Login
Location: Erba
(45.8000°N, 9.2500°E)
Time: 07:48:50
(UTC+02:00)
Language:

ISS - Orbit

View from above orbital plane
View from above orbital plane
View from above satellite
View from above satellite

Ground track
Ground track

The orbit data is extracted from the following two-line orbital elements,

1 25544U 98067A   24105.81558473  .00018151  00000-0  32293-3 0  9991
2 25544  51.6402 269.6266 0004968  66.4650  74.4718 15.50199969448710
Epoch (UTC): 14 April 2024 19:34:26
Eccentricity: 0.0004968
inclination: 51.6402°
perigee height: 413 km
apogee height: 419 km
right ascension of ascending node: 269.6266°
argument of perigee: 66.4650°
revolutions per day: 15.50199969
mean anomaly at epoch: 74.4718°
orbit number at epoch: 44871

The dashed part of the orbit path shows where the satellite is in the earth's shadow,  

DLR